Theta_e
346 346 346 348 348 347 346 344 344 345 345 345 347 347 346 346 347 346 347 348 348 347 347 347 347 347 346 345 344 343 342 343 342 341 340 340 342 343 343 343 342 343 344 343 342 342 342 343 346 349 348 347 346 345 345 349 352 352 351 351 351 352 353 352 352 351 349 347 342 339 340 336 333 337 337 336 338 341 341 341 342 343 343 345 345
344 345 346 348 348 347 346 345 345 346 346 346 347 347 347 348 349 348 347 349 349 347 346 348 348 348 347 345 344 344 343 344 343 342 342 341 342 343 343 342 344 347 347 345 344 344 344 344 344 345 346 345 346 347 347 349 351 352 351 350 350 351 352 352 350 348 345 341 339 338 337 333 330 332 331 333 338 341 342 342 342 342 343 345 346
343 344 344 346 346 346 346 346 347 347 346 347 348 347 347 350 349 348 348 349 350 349 349 349 350 350 348 345 344 344 345 346 345 343 343 343 343 344 343 343 345 347 347 346 347 345 344 345 345 346 348 348 349 351 351 352 352 351 350 349 350 350 351 350 349 346 344 340 337 335 334 331 330 331 331 336 342 345 344 343 342 342 343 344 345
342 342 343 344 345 345 344 344 346 347 346 346 348 347 348 350 350 349 349 350 350 350 350 350 350 349 349 347 345 344 346 348 349 347 346 345 346 346 344 344 345 347 349 350 351 348 347 348 349 349 349 348 347 346 347 349 350 350 349 349 350 350 350 349 347 346 345 342 338 336 335 333 331 332 336 340 343 343 343 342 341 342 343 344 345
340 342 342 343 345 345 345 344 344 345 346 348 349 348 348 351 351 351 352 352 350 349 350 351 350 349 350 350 347 346 349 351 352 352 350 348 348 349 348 347 346 347 349 351 353 352 349 347 346 345 345 344 343 343 342 343 344 347 348 349 349 349 348 347 345 345 346 343 340 339 336 334 332 334 339 343 343 342 341 342 341 341 342 342 343
340 341 341 342 344 344 347 349 347 344 346 349 350 349 350 352 353 353 353 353 352 351 351 352 351 349 351 352 351 350 351 353 354 353 353 351 349 350 351 351 350 350 350 350 351 351 349 346 345 346 346 345 345 345 344 343 342 343 343 344 345 344 344 342 342 343 344 344 345 343 336 334 335 336 340 344 345 345 343 341 340 340 340 341 341
342 342 343 345 344 344 349 352 349 345 345 348 349 350 351 353 352 352 353 353 353 353 352 353 352 351 352 353 353 352 352 353 353 353 354 352 350 349 351 353 354 353 353 353 352 351 350 348 348 348 348 347 346 346 346 346 345 344 343 342 342 343 343 343 342 343 343 344 345 341 336 337 339 339 341 343 345 346 345 342 339 339 341 343 343
345 345 347 349 347 346 351 352 349 347 347 347 348 351 352 352 352 352 352 352 352 352 353 353 353 352 353 353 353 353 352 352 352 352 352 350 349 348 350 354 355 354 353 354 353 352 351 351 349 349 348 347 346 346 346 347 346 346 345 344 343 343 344 344 344 344 344 344 341 339 339 340 340 341 343 343 344 344 345 344 344 343 344 345 346
347 347 350 351 349 347 349 350 349 349 350 349 349 351 352 352 351 351 351 351 351 351 352 353 353 353 353 353 353 353 353 352 350 351 351 349 348 348 349 352 355 354 353 353 353 352 352 351 350 349 348 347 347 346 345 344 344 344 346 346 345 345 345 345 346 346 345 344 342 341 342 341 341 344 345 345 346 346 346 347 348 347 346 346 347
348 348 349 351 350 349 348 348 349 350 352 351 350 351 351 352 351 349 348 347 347 349 351 352 353 352 353 353 353 353 353 353 351 351 352 351 350 350 350 351 353 354 353 353 352 352 351 351 351 349 349 348 347 347 345 344 343 343 345 347 346 346 346 346 347 347 347 346 345 344 343 343 345 346 347 348 348 348 349 349 349 349 348 347 347
349 349 349 349 350 350 349 348 349 350 351 351 351 350 350 350 350 349 349 347 346 347 348 349 350 351 351 351 352 353 352 352 351 352 352 352 351 350 350 350 351 352 353 352 352 352 351 351 350 349 349 348 347 346 345 344 344 343 343 345 346 347 347 347 348 348 348 347 346 346 346 346 346 347 348 349 349 349 350 350 349 349 349 349 349
349 349 349 348 349 350 349 349 349 350 351 351 350 349 348 348 348 348 348 348 347 347 348 348 348 349 349 348 349 350 349 349 350 350 351 351 351 350 348 347 348 349 351 352 351 350 350 350 349 349 347 347 346 346 346 345 345 345 345 345 345 345 345 345 347 348 348 347 347 347 348 348 347 348 348 349 350 350 349 350 350 350 351 351 351
350 350 349 349 350 350 350 350 349 350 350 350 350 349 348 347 347 346 346 346 347 347 349 349 348 347 347 347 346 347 347 347 348 348 347 347 348 349 348 346 346 348 350 350 348 347 346 347 347 347 347 347 347 347 347 347 346 346 346 346 346 346 345 346 347 348 348 349 350 350 350 350 350 349 349 349 350 350 350 350 351 352 352 353 352
349 350 349 349 350 350 351 351 349 349 350 350 349 348 348 347 346 345 346 346 347 347 348 348 348 347 346 346 345 345 346 346 346 345 344 344 345 346 347 346 347 348 350 350 348 347 346 345 345 345 345 346 346 346 347 346 346 345 345 345 345 345 346 346 348 349 351 352 353 353 353 353 352 351 350 350 350 351 351 351 352 352 352 352 351
348 349 349 349 349 350 351 351 350 350 351 350 349 349 349 348 346 345 346 346 347 348 348 348 347 346 345 346 346 346 346 345 345 345 344 343 342 344 345 346 346 347 349 350 350 348 347 345 345 344 344 342 342 343 343 343 343 343 342 343 345 345 347 348 349 350 351 352 353 354 354 353 351 350 350 351 352 352 352 352 352 352 351 351 351
350 350 350 349 349 351 352 352 351 350 350 350 350 351 351 350 347 346 345 346 346 348 348 347 347 346 346 345 345 345 345 345 345 346 345 344 343 343 343 345 345 346 347 348 349 349 348 346 345 345 344 342 339 338 339 339 340 341 341 342 344 345 346 346 346 347 349 351 352 352 352 351 350 350 351 351 351 351 351 351 350 350 351 351 350
354 353 352 351 351 351 352 352 351 349 347 347 348 350 352 352 350 348 347 347 346 346 346 347 347 346 346 346 345 345 345 345 346 346 346 346 346 345 344 343 343 344 346 348 349 349 347 346 346 346 345 342 339 339 339 341 342 343 343 343 344 345 346 345 346 347 348 349 349 350 350 349 349 350 350 350 350 350 350 350 349 350 349 347 344
352 352 352 352 352 351 351 353 353 351 349 347 346 347 350 352 352 350 350 349 348 347 347 347 347 347 347 347 347 347 347 347 347 347 347 348 348 347 346 345 344 345 346 347 348 348 347 347 347 347 346 344 343 343 344 345 347 347 347 347 347 347 347 347 347 347 347 348 348 348 348 348 348 348 349 349 349 348 349 350 349 346 340 334 333
349 348 348 350 351 351 351 353 354 353 351 350 347 346 349 352 354 352 350 349 349 349 349 349 349 348 348 348 348 348 349 349 350 350 350 350 350 350 349 347 347 347 347 348 348 348 348 347 347 346 347 347 347 348 348 348 349 348 348 348 348 348 348 347 347 346 346 345 344 343 343 344 346 347 348 348 348 348 348 346 341 335 329 327 331
349 350 350 351 351 351 352 353 354 353 351 351 349 348 350 353 354 353 351 349 349 349 350 350 349 349 348 349 350 350 350 351 352 352 352 353 353 352 351 350 349 348 349 349 349 349 347 345 344 346 349 350 350 350 350 349 348 347 347 346 346 345 345 344 342 340 339 337 337 338 341 343 345 346 346 346 346 344 341 334 326 324 326 327 330
349 351 352 351 351 352 353 353 353 352 351 351 350 350 351 352 352 352 352 350 350 350 350 349 349 348 348 349 350 350 350 351 351 352 352 352 352 352 351 351 350 350 350 351 350 349 348 346 346 349 351 351 351 349 345 342 340 339 338 337 337 336 336 335 334 332 331 333 335 335 336 338 339 340 341 340 337 336 331 324 319 323 329 329 327
347 347 348 348 349 350 351 350 350 349 348 348 348 348 349 350 351 350 350 350 350 350 348 348 348 347 347 348 349 348 348 349 349 349 350 350 350 350 350 350 350 350 350 350 350 350 350 349 349 350 350 350 348 340 331 327 326 325 325 325 325 326 326 326 327 328 329 332 335 333 331 330 329 329 330 330 327 325 322 317 316 320 326 329 330
344 343 343 344 345 346 346 346 345 345 344 344 345 344 345 346 346 346 345 345 344 343 342 341 342 342 341 341 342 343 343 344 344 345 346 346 347 348 347 347 348 349 349 348 348 349 348 347 347 348 348 349 343 331 319 318 318 317 319 321 321 323 326 328 329 330 330 332 333 333 330 327 323 321 321 320 318 316 314 313 313 314 318 323 329
342 341 341 341 341 341 342 342 342 342 342 342 342 343 344 344 344 343 341 339 338 338 337 336 336 336 335 333 332 332 331 331 332 333 334 335 338 341 343 344 345 345 346 346 346 345 343 342 342 341 340 339 332 321 315 316 318 318 319 321 323 325 328 330 331 330 328 327 326 325 324 322 320 318 316 314 312 311 311 311 311 312 313 315 319
341 341 340 339 339 339 338 338 338 339 339 340 340 340 340 341 340 340 339 338 337 337 338 337 336 335 333 332 331 330 328 326 325 325 324 325 327 330 335 339 341 342 342 342 342 341 340 339 336 331 327 323 318 314 316 320 321 322 322 323 324 326 326 326 326 325 324 323 322 321 321 319 318 318 316 313 310 309 309 310 310 311 311 311 312
335 336 336 336 335 334 332 330 329 329 330 333 336 337 337 337 337 336 336 336 336 336 337 337 336 335 335 335 334 333 332 331 329 327 325 323 323 323 324 328 334 337 339 340 339 337 335 333 328 321 316 314 313 315 321 325 325 325 325 326 327 327 325 325 325 324 324 324 323 323 322 321 320 320 318 313 309 308 308 309 308 308 309 308 308
327 327 327 329 329 328 326 324 323 324 325 327 332 334 334 335 336 337 336 336 335 335 335 335 335 335 336 335 334 334 334 334 332 331 329 327 326 325 323 321 323 325 328 330 330 328 325 321 317 313 312 313 315 318 323 326 326 326 327 327 327 326 325 325 325 325 325 325 324 324 324 323 322 322 318 313 309 309 309 309 308 309 309 309 308
322 323 323 324 325 326 325 324 324 326 328 328 330 330 328 327 331 333 333 330 327 327 330 331 333 335 336 336 336 335 334 334 333 332 331 330 329 328 325 322 320 319 318 317 316 314 313 312 311 314 318 321 321 322 324 325 326 327 327 326 325 325 324 325 325 325 324 324 324 324 323 322 322 320 316 311 309 310 310 309 310 310 310 309 309
316 319 319 320 323 324 325 324 325 328 329 329 330 329 327 325 325 325 326 324 322 323 325 328 331 333 335 335 336 335 334 334 333 332 331 331 330 329 326 324 322 317 313 312 310 308 310 313 316 320 324 325 324 324 325 326 327 327 325 324 323 323 323 324 324 323 323 323 322 322 321 321 319 316 312 310 310 311 312 311 312 312 311 311 311
313 313 316 320 323 325 326 327 327 328 329 329 329 330 329 328 325 324 327 329 328 328 329 329 329 331 331 332 333 332 332 331 331 330 331 330 330 329 328 326 322 314 309 309 308 308 313 320 324 324 325 326 325 325 325 325 326 325 324 324 323 323 323 323 323 323 322 322 321 321 320 318 316 313 311 311 312 313 313 313 313 313 313 312 311
317 316 319 324 326 327 329 329 328 328 328 329 329 329 329 329 328 328 329 331 330 330 330 329 328 327 327 327 328 328 328 328 328 328 328 327 327 326 324 321 316 310 307 309 307 307 314 323 326 324 325 326 326 325 325 325 325 324 324 324 324 323 323 323 322 321 321 320 319 317 316 314 313 312 312 314 314 314 313 313 313 312 312 311 311
318 318 320 324 326 326 327 328 327 327 328 328 327 328 328 328 329 328 328 328 328 327 327 326 325 324 322 322 321 321 321 322 322 321 320 318 317 315 313 311 309 307 308 309 308 309 317 324 325 324 324 325 325 325 325 325 324 324 323 323 323 322 321 320 320 319 319 318 317 315 313 312 313 314 315 316 316 315 314 313 312 312 311 311 311
319 318 319 321 324 326 327 327 326 327 328 327 326 326 326 325 325 324 323 323 323 322 321 321 320 318 317 316 315 314 314 314 313 313 312 311 310 308 308 307 307 308 311 313 312 315 320 324 323 322 322 323 323 323 323 323 323 323 322 321 321 320 319 319 318 318 317 316 315 313 313 313 315 316 317 316 316 316 315 314 313 312 311 311 311
320 320 318 317 319 324 326 327 327 327 327 327 326 326 324 323 321 321 321 321 321 320 320 319 318 317 317 316 315 314 314 314 313 313 312 311 310 308 308 308 310 313 316 317 317 319 322 322 321 321 321 321 321 321 321 321 321 321 320 320 320 319 318 318 317 316 315 314 313 313 313 314 315 316 316 316 316 315 315 314 313 312 311 311 311
317 320 317 313 313 318 321 324 326 327 327 326 326 326 324 323 321 320 321 321 321 320 320 319 318 318 318 318 317 317 316 315 315 314 313 312 311 309 309 311 314 317 318 319 320 322 322 322 321 320 320 320 320 320 320 320 320 319 319 319 318 318 318 317 316 315 314 313 313 313 313 314 314 314 314 314 314 314 314 313 312 311 310 310 310
315 319 318 312 312 315 316 318 322 325 326 326 326 325 325 323 321 320 320 320 320 320 320 320 320 320 319 318 318 317 317 316 315 315 314 314 313 311 310 312 316 319 319 320 321 322 322 322 322 320 319 319 319 319 319 319 319 318 318 317 317 316 316 315 314 314 313 313 313 313 313 313 313 313 313 313 313 312 312 311 310 310 310 310 309
314 317 317 312 311 314 315 315 317 320 323 324 325 325 324 322 320 320 320 320 320 320 321 320 320 320 319 318 318 318 317 316 316 315 314 314 314 314 313 313 316 318 318 319 320 320 320 320 320 320 319 319 318 318 318 318 317 317 317 316 316 315 315 314 313 313 312 312 312 312 312 312 312 312 312 312 311 311 311 310 310 309 309 308 307
312 314 314 312 310 312 313 314 315 315 316 317 319 321 322 322 321 321 321 321 321 321 321 321 321 321 320 319 319 318 318 318 317 317 316 315 315 315 315 315 315 316 317 317 318 318 318 318 318 318 318 318 318 318 317 317 317 316 316 316 315 315 314 314 313 312 312 312 312 312 312 311 311 311 311 311 311 310 310 309 309 307 306 305 304
313 315 316 316 314 314 314 315 314 313 312 312 312 313 316 319 320 321 321 321 322 321 320 320 320 320 319 319 319 319 319 319 318 317 317 316 315 315 315 315 315 315 316 316 316 316 316 316 316 317 317 317 317 317 317 317 316 316 316 315 315 314 314 314 313 313 312 312 311 311 311 311 310 310 310 310 309 309 308 308 306 304 303 302 302
315 316 317 318 317 317 318 317 316 314 313 313 312 311 311 312 314 316 318 319 319 319 318 318 319 318 318 319 319 319 319 318 318 317 316 316 315 315 315 314 314 314 314 314 315 315 315 315 315 316 316 316 316 316 316 316 316 316 316 315 315 314 314 313 313 313 312 312 311 310 310 309 309 309 309 308 308 307 307 305 303 302 301 301 301
316 317 318 318 319 319 319 318 316 315 315 315 315 315 313 312 313 314 315 315 316 317 318 319 319 319 319 319 319 319 319 318 317 316 315 315 315 314 314 313 313 312 312 312 313 313 314 314 314 315 314 315 314 314 315 315 315 315 315 314 314 313 313 312 312 312 311 311 310 309 309 308 308 307 307 307 307 306 304 302 301 300 300 300 300
318 318 319 319 320 319 318 317 317 316 316 316 316 316 316 316 316 316 316 316 316 317 318 319 318 318 318 318 318 318 317 317 316 315 314 314 314 313 312 312 311 311 311 311 312 312 312 312 313 313 313 313 312 312 312 312 312 312 312 312 312 312 311 311 310 309 309 308 308 307 306 306 305 305 305 304 303 302 301 300 300 300 300 300 300
320 320 320 320 319 319 319 318 318 317 317 316 316 316 316 316 316 317 317 317 316 316 316 317 317 317 317 317 316 316 315 315 314 314 313 312 312 311 311 310 310 311 311 311 311 311 311 311 311 311 311 311 310 310 310 309 309 309 309 309 309 309 308 308 307 306 305 305 304 303 303 302 302 301 301 300 299 299 299 299 299 299 299 299 299
320 320 320 319 320 319 319 319 318 318 318 317 317 316 316 316 316 316 316 315 314 314 314 314 315 315 315 315 315 315 314 314 313 312 311 311 310 310 310 310 310 310 310 310 310 310 310 310 309 309 309 309 309 308 308 307 307 306 306 306 306 306 306 305 304 303 302 301 301 300 300 299 299 298 298 298 298 298 298 298 298 298 298 298 298
321 321 320 319 320 320 320 319 319 318 318 317 316 316 316 315 316 316 315 314 314 314 315 315 315 315 314 314 314 313 313 312 311 311 310 310 310 309 309 309 309 309 309 309 309 309 309 308 308 307 307 307 306 306 305 304 304 303 302 302 301 302 302 302 301 300 300 299 299 298 297 297 296 296 296 297 297 297 297 297 297 297 297 297 297
321 320 320 320 319 320 320 320 319 318 317 316 316 316 316 316 316 316 315 314 314 314 314 314 314 314 313 313 312 312 311 311 310 310 310 309 309 309 308 308 308 308 308 308 308 307 307 306 306 305 305 304 303 302 301 301 301 300 299 299 299 299 299 299 298 298 298 297 297 296 296 295 295 296 296 296 296 296 296 296 296 296 296 296 296
318 318 319 320 320 320 320 319 319 318 318 317 316 316 316 316 316 316 314 313 313 313 313 313 313 313 312 312 311 311 310 310 310 309 309 308 308 307 307 306 306 306 306 306 305 305 304 304 303 303 302 302 301 300 299 299 299 298 298 297 297 297 297 297 297 296 296 296 296 295 295 295 295 295 296 295 295 296 296 296 296 296 295 295 296
316 316 316 317 318 319 319 319 318 318 318 317 316 315 316 315 315 314 314 313 312 312 312 312 312 312 312 311 311 310 309 309 308 307 306 306 305 305 304 304 304 303 303 303 303 303 302 302 302 301 300 299 299 298 298 298 298 297 297 296 296 296 296 296 296 296 296 295 295 295 295 295 295 295 295 295 295 295 295 295 295 295 295 296 296
313 313 314 315 316 318 319 318 317 317 317 317 315 314 314 313 313 312 312 312 312 312 312 312 311 311 311 311 310 308 307 306 305 305 304 304 304 303 303 303 303 302 302 302 302 302 301 301 300 299 298 297 297 297 297 297 297 297 297 297 297 296 296 296 296 295 295 294 294 294 294 294 294 294 294 294 295 295 295 295 295 295 295 296 297
312 313 314 314 316 317 318 318 317 316 316 315 314 314 313 313 312 311 311 311 311 311 311 310 310 310 309 309 307 306 305 304 304 304 303 303 303 303 302 302 302 302 302 301 301 301 300 300 299 297 297 297 297 297 297 297 297 297 297 297 296 296 296 295 295 294 294 293 293 293 293 293 294 294 294 294 294 294 294 294 294 295 296 296 296
311 313 313 313 314 315 315 316 316 316 315 314 314 313 313 313 312 312 311 311 310 310 309 309 309 308 307 306 305 304 304 304 304 303 303 303 303 302 302 302 302 302 301 301 300 300 299 299 298 297 297 297 297 297 296 296 296 296 296 296 295 295 295 294 294 294 293 293 293 293 293 293 294 294 294 294 294 294 294 294 294 295 295 295 295
Wind_Speed
27 26 26 25 23 23 22 21 20 18 18 18 17 16 16 15 15 15 15 14 14 14 14 14 13 12 12 12 12 11 11 11 11 11 10 10 10 9 9 9 8 8 8 9 9 8 9 9 9 8 8 8 7 7 8 9 10 9 8 7 7 6 7 8 11 13 13 12 10 8 8 10 9 8 9 10 10 11 11 10 11 11 11 12 12
26 26 26 25 23 23 23 22 21 19 19 18 17 16 16 15 15 15 15 14 13 14 14 13 13 13 13 13 12 12 11 10 11 11 10 10 11 10 10 9 8 7 7 8 7 8 8 9 8 7 6 6 5 4 5 6 8 8 6 5 6 6 7 8 10 14 14 12 9 9 9 11 12 12 13 12 11 12 12 11 11 11 11 11 11
25 26 26 25 24 23 23 22 22 21 20 19 18 17 16 16 15 15 15 14 14 14 13 12 12 12 13 13 13 12 11 11 11 11 10 11 11 10 10 9 8 8 7 6 6 7 8 7 6 5 5 6 5 4 5 5 5 6 5 5 6 6 7 8 9 13 15 13 10 11 13 14 15 14 13 10 10 11 12 12 12 12 12 11 12
25 25 25 25 24 23 22 21 21 22 22 20 19 18 17 16 15 15 14 14 13 13 13 12 11 11 12 12 13 13 11 10 10 9 9 10 10 10 10 9 10 10 8 6 6 6 7 6 5 4 4 5 4 4 5 6 6 6 5 5 7 7 8 9 11 13 14 14 13 14 16 17 15 13 11 9 8 10 12 12 14 14 13 13 15
26 25 25 25 24 24 22 21 21 22 22 20 20 19 18 17 16 15 14 13 13 12 13 13 12 12 11 10 12 13 11 9 9 9 9 9 9 9 9 9 10 10 8 7 7 7 7 6 4 3 2 2 3 4 4 4 5 6 6 6 7 9 11 12 12 12 14 15 15 17 18 17 14 12 11 11 11 12 13 14 15 15 15 15 18
26 26 25 25 25 25 22 20 21 22 22 21 20 19 19 18 17 16 14 13 13 13 13 13 12 12 11 9 9 11 10 9 9 9 9 9 9 9 8 8 8 9 9 9 8 7 6 4 1 2 3 5 7 8 7 6 5 5 5 6 7 9 10 11 12 13 15 16 17 20 19 16 14 13 13 14 15 16 18 18 17 16 18 19 20
25 25 24 23 25 25 23 21 21 21 21 21 20 20 20 19 17 16 15 14 14 14 13 12 12 12 11 10 9 10 11 11 12 11 11 11 11 11 9 8 8 8 8 8 6 4 3 3 3 4 7 10 11 11 11 11 10 8 8 7 8 9 10 12 13 14 16 17 19 20 19 16 16 16 15 16 17 18 20 21 20 19 21 22 23
23 24 23 22 23 25 25 23 21 20 20 20 20 19 18 17 16 15 15 15 15 14 13 13 13 12 13 13 12 12 12 13 13 13 12 12 12 12 11 10 10 9 8 7 6 5 5 6 7 8 10 11 10 8 9 10 11 12 12 11 10 10 11 13 14 15 17 18 19 18 18 18 18 17 17 17 18 19 20 22 23 23 24 25 25
21 22 22 23 22 23 24 23 22 20 18 17 19 19 18 16 15 14 14 14 14 14 14 15 15 14 14 15 15 14 14 13 13 12 12 11 11 12 12 12 12 11 9 8 7 8 9 9 10 11 12 11 10 10 9 8 10 11 13 13 13 12 12 14 15 16 16 17 17 18 19 19 18 18 19 19 19 21 21 22 24 25 27 28 27
23 22 22 23 22 21 21 21 21 21 20 17 17 18 19 19 18 17 15 14 13 14 15 16 16 15 16 16 16 16 15 14 13 12 12 11 11 11 12 13 13 12 10 8 8 9 11 11 12 12 13 13 13 13 11 10 11 11 11 13 15 14 14 15 16 16 16 17 18 19 19 19 18 18 19 20 20 21 22 23 25 27 28 30 29
26 24 23 23 22 21 20 21 21 20 20 20 18 18 21 22 21 20 19 18 17 16 16 16 16 16 15 15 16 17 16 14 12 12 12 12 12 11 11 11 11 12 12 11 10 12 12 13 13 14 14 14 14 14 12 12 12 11 10 11 13 15 16 16 16 17 18 18 18 18 18 19 19 19 20 21 21 21 22 24 26 28 28 30 31
28 26 24 23 23 22 20 20 22 22 22 23 22 21 22 24 23 21 21 22 22 21 20 18 16 15 15 14 15 16 16 14 12 12 13 13 13 13 12 11 10 11 12 13 14 15 15 15 14 14 14 13 13 13 14 14 14 13 13 12 13 14 16 17 18 19 19 19 19 19 20 22 23 22 22 22 23 23 25 26 26 26 27 28 29
30 29 27 25 24 24 22 21 22 24 25 26 26 24 24 26 26 24 22 22 24 24 23 21 18 17 16 17 17 17 16 16 15 15 14 14 14 14 14 13 12 12 14 15 16 15 15 15 15 15 15 15 14 14 14 15 15 15 15 15 16 16 17 18 19 21 21 21 21 20 21 24 25 24 23 23 24 25 26 26 25 26 27 27 28
31 31 29 27 26 27 26 25 24 25 27 28 29 27 25 26 27 26 23 21 23 25 25 23 22 20 20 20 19 18 17 16 17 17 17 16 16 16 16 15 16 16 17 18 18 17 16 16 17 17 18 18 18 17 17 17 17 17 17 18 18 19 19 19 19 20 21 21 21 21 22 24 25 25 24 24 25 26 26 27 27 28 28 27 27
30 31 30 29 28 29 29 29 28 28 27 29 30 29 27 27 28 28 25 21 21 24 26 26 24 23 22 21 20 20 19 18 18 18 17 17 17 18 18 18 19 20 20 21 22 22 21 20 19 19 20 20 21 22 21 21 20 20 20 20 20 20 20 19 19 20 21 22 23 23 24 25 25 25 25 25 25 25 26 27 27 27 27 25 23
29 30 29 29 29 29 29 29 30 29 27 28 30 30 28 29 30 29 28 25 23 24 25 26 26 25 25 24 24 23 23 22 22 21 20 19 19 19 19 19 21 22 23 24 25 24 24 23 22 21 20 20 21 23 23 23 23 22 22 21 21 20 20 19 20 20 21 22 23 24 24 24 25 25 24 23 23 24 24 24 23 23 22 21 18
27 28 28 29 30 29 29 30 31 30 28 29 31 31 29 30 31 31 30 28 27 27 26 26 26 26 26 26 26 26 26 26 26 25 24 23 22 21 21 20 21 22 23 25 26 26 25 24 22 22 20 20 20 21 22 23 22 22 22 21 20 20 20 20 21 21 21 22 22 22 22 22 22 22 21 20 20 20 20 19 18 18 17 17 16
26 27 28 29 30 30 30 32 33 32 30 30 31 31 31 31 32 32 31 30 29 29 30 29 29 29 28 28 28 27 27 28 28 27 26 25 24 23 22 21 21 22 23 24 24 25 24 24 23 22 21 21 21 22 22 22 21 21 20 20 19 19 19 19 20 20 19 19 18 18 17 17 16 16 15 15 15 16 15 15 15 15 14 14 15
24 26 28 29 31 32 33 34 35 33 32 32 32 33 34 33 33 32 32 31 29 28 29 29 29 29 29 29 29 29 29 28 28 28 27 26 25 24 22 22 22 22 23 24 24 23 23 22 22 22 22 22 22 22 21 20 19 19 19 18 17 17 17 17 17 16 15 14 14 13 12 11 11 12 12 11 12 13 14 14 14 14 14 13 13
24 27 27 25 25 27 30 31 31 30 30 30 32 35 35 33 30 29 28 28 27 27 28 28 28 28 28 27 28 28 28 27 27 27 26 26 26 24 23 23 23 24 25 25 24 24 24 23 23 23 22 21 19 19 18 17 16 16 16 15 14 13 13 13 13 12 11 11 10 10 9 9 10 10 10 11 11 11 11 12 13 13 14 14 13
27 29 28 24 21 21 22 23 24 23 23 25 28 31 33 31 28 26 25 25 25 26 26 26 26 27 27 26 25 24 23 23 24 25 26 26 25 24 23 24 24 26 27 25 22 22 23 24 23 22 20 17 15 13 12 11 10 10 10 9 9 9 9 9 9 9 8 8 8 7 6 7 9 10 11 12 12 12 11 11 11 12 13 14 15
19 20 19 18 19 21 22 22 20 18 18 19 21 24 27 27 26 26 25 25 24 21 20 19 19 18 19 21 21 21 20 20 21 21 21 22 21 20 21 22 22 24 25 23 21 21 21 20 19 16 13 12 10 7 6 6 5 5 5 6 6 7 8 8 8 8 7 8 8 7 6 7 9 11 12 13 14 13 13 13 12 12 13 14 15
7 7 6 6 8 12 15 14 12 11 13 14 16 18 19 20 21 20 17 15 15 12 9 9 10 8 8 11 12 13 13 14 13 12 12 13 13 14 16 17 17 18 19 18 18 19 19 16 12 9 7 7 6 4 4 5 4 4 5 6 7 7 8 8 8 8 8 8 9 9 10 11 12 12 13 15 16 15 16 16 15 15 15 14 14
6 6 8 8 8 9 9 9 10 10 10 11 12 13 13 14 15 14 12 12 12 11 9 8 7 6 8 10 10 8 6 4 4 4 3 4 5 7 9 9 9 9 10 10 10 11 9 6 3 2 3 4 4 4 4 4 4 5 6 8 8 8 8 8 8 8 9 9 10 12 13 13 12 12 14 16 17 17 17 18 18 18 17 16 15
8 8 11 14 16 16 16 17 16 15 13 13 13 14 14 15 15 14 14 12 12 12 11 9 8 9 10 11 11 10 7 6 6 6 5 5 4 3 4 5 5 5 5 6 6 5 5 4 4 4 4 4 4 5 5 5 6 7 9 10 10 9 8 8 8 8 9 11 12 13 13 13 13 15 16 17 18 18 18 18 18 18 18 16 14
7 8 10 13 15 15 15 14 14 13 12 11 11 10 11 11 11 10 9 8 7 7 8 8 7 8 9 10 9 8 7 6 5 5 5 4 3 2 2 3 5 6 6 7 7 6 6 6 6 5 5 6 7 7 8 8 8 10 10 10 10 9 9 8 8 9 9 11 12 13 13 14 16 18 19 20 19 17 17 16 16 16 15 14 11
5 7 8 10 12 13 13 13 12 11 10 11 10 10 9 8 8 8 8 6 5 4 5 7 8 10 10 9 8 6 4 2 1 1 1 1 1 1 1 2 4 6 7 8 8 8 8 8 6 6 7 9 9 9 9 10 11 11 10 10 10 10 9 8 7 8 9 10 12 12 14 16 18 19 21 21 19 17 15 15 14 14 14 13 11
6 8 8 8 10 11 11 11 11 9 9 9 9 9 8 6 6 7 7 5 4 4 4 4 5 8 9 8 7 4 3 3 3 3 4 5 6 5 4 3 4 5 5 6 7 7 6 6 5 6 7 7 7 7 7 10 12 11 9 9 9 8 7 7 7 8 9 11 12 13 15 17 19 21 22 20 17 16 15 14 13 13 13 13 13
8 8 7 7 8 9 9 10 10 9 8 7 7 7 6 4 4 6 6 6 5 5 4 3 3 3 4 5 5 3 3 4 4 5 6 8 9 9 9 9 10 10 9 8 5 3 3 5 6 8 8 6 5 4 5 8 11 10 9 8 8 8 8 8 9 10 11 12 14 16 18 20 22 21 19 16 14 13 13 12 12 12 12 12 12
9 9 8 8 8 8 7 8 9 9 8 7 6 5 5 5 5 5 6 6 6 4 3 3 2 1 2 3 3 3 4 5 6 7 8 10 11 12 13 14 14 14 13 9 5 1 4 6 7 8 8 7 7 7 7 8 9 9 9 9 9 9 10 11 12 13 15 16 18 20 22 23 21 18 14 12 10 10 11 11 11 11 12 13 13
8 9 9 9 9 8 8 8 8 8 8 8 7 7 6 6 6 6 6 6 6 5 5 5 5 5 5 6 6 6 7 7 9 10 11 13 15 16 17 18 17 15 11 8 4 2 7 9 8 7 6 6 7 8 8 8 9 9 9 10 11 13 14 16 17 18 19 20 20 21 20 19 15 12 10 9 9 10 11 11 11 12 13 13 14
7 8 9 10 9 8 9 8 7 7 7 7 7 8 7 7 7 6 6 7 7 7 7 8 9 10 10 11 11 11 11 12 13 14 15 16 18 18 17 16 13 9 5 2 2 5 9 10 8 6 5 4 5 7 8 9 10 11 12 13 14 16 17 18 19 20 21 21 20 18 15 12 9 8 8 8 10 11 12 12 12 13 13 14 14
7 8 9 10 10 9 9 8 7 7 7 7 6 6 6 7 7 7 7 7 6 5 5 5 5 6 7 8 8 9 10 11 12 13 13 13 13 12 10 7 3 1 3 4 6 9 9 8 7 5 4 4 6 7 8 9 10 12 13 15 16 17 18 19 20 20 21 20 18 15 12 9 8 8 9 10 11 12 14 14 15 16 16 16 16
4 5 6 9 12 12 11 10 8 8 8 8 7 7 6 6 6 6 6 5 4 3 3 3 3 2 3 3 3 4 5 6 7 7 7 7 6 5 3 2 5 7 7 7 10 11 9 7 7 5 4 5 7 8 9 10 12 13 15 16 16 17 18 19 20 20 18 16 14 12 11 10 10 10 11 12 14 15 16 17 18 19 19 19 19
4 4 4 6 10 12 13 12 11 10 9 9 9 8 8 7 6 6 6 5 5 4 4 4 3 3 3 4 4 5 5 6 6 6 5 6 5 3 2 6 8 8 8 9 11 10 8 7 7 6 6 7 8 10 11 13 14 15 16 17 17 18 19 19 19 18 15 13 12 12 12 13 13 14 15 16 17 18 19 20 20 20 20 20 21
7 7 7 7 8 10 12 12 13 12 12 11 10 10 10 9 8 8 7 7 6 5 4 4 3 3 5 5 5 6 7 7 6 6 6 6 5 3 3 7 7 6 6 8 8 7 7 7 7 7 8 8 9 11 12 13 14 15 16 17 17 18 18 18 17 16 15 14 14 14 15 16 17 17 18 18 19 20 20 20 20 21 22 23 24
9 10 10 9 9 10 11 11 11 13 13 12 12 12 11 10 9 9 8 8 7 6 5 4 3 3 4 5 6 7 7 7 6 6 6 5 4 2 1 4 5 4 5 6 6 6 6 7 8 9 10 11 11 12 13 13 14 15 16 17 17 17 17 17 16 16 16 16 16 17 17 18 18 19 19 20 20 20 21 22 23 24 25 25 26
10 11 11 10 10 10 10 10 11 11 12 12 13 13 13 12 11 10 9 9 8 8 7 7 6 4 5 6 7 7 7 7 7 7 6 4 3 3 4 5 7 7 7 7 7 8 8 9 11 12 13 13 14 14 15 15 15 16 17 17 17 17 17 17 17 17 17 17 18 18 19 19 19 20 20 21 22 23 24 25 26 27 27 26 25
9 10 10 9 9 8 8 9 9 9 10 11 11 13 14 14 14 13 12 12 11 10 9 9 8 7 6 7 7 6 6 8 9 9 8 7 7 8 9 9 10 11 11 12 12 13 13 13 14 15 15 15 16 16 17 17 18 18 18 18 18 18 18 18 19 19 20 20 20 21 21 21 21 21 22 23 24 25 26 27 28 28 27 25 23
8 9 9 9 9 8 8 8 7 8 8 9 10 11 12 13 14 14 14 14 14 12 11 9 9 8 7 7 7 7 8 9 9 10 10 10 11 12 13 14 14 14 15 16 17 17 17 17 18 18 18 18 18 18 19 19 20 20 20 20 20 20 20 20 21 21 22 22 23 23 23 23 23 23 24 25 26 27 28 28 28 26 24 22 20
8 9 10 10 10 10 10 9 8 8 9 9 9 10 11 12 13 12 12 12 13 12 11 10 9 8 8 9 9 9 10 10 10 11 12 13 14 16 17 18 18 18 18 18 19 19 20 20 20 20 21 21 21 21 21 21 21 22 22 22 22 22 22 22 22 23 23 24 24 24 24 25 25 26 26 27 28 28 28 27 25 22 20 18 18
9 10 11 12 12 12 11 10 10 9 9 10 10 11 11 12 12 11 11 12 13 13 13 12 10 9 9 10 10 11 11 12 12 13 15 16 17 19 20 19 18 17 17 17 18 18 19 20 21 21 22 22 22 22 22 22 22 22 22 23 23 24 24 24 24 24 24 24 24 25 25 26 27 27 28 28 28 26 24 21 19 18 17 16 16
12 12 12 13 14 14 13 12 11 11 12 12 12 12 12 12 13 13 13 13 14 15 14 13 11 10 10 10 12 13 14 14 15 15 16 16 17 18 18 18 17 16 16 16 17 18 19 19 20 21 22 23 23 23 22 22 22 22 22 23 23 23 23 24 24 24 24 25 25 25 26 26 27 27 27 25 23 20 18 16 16 16 16 16 16
17 16 16 16 16 16 16 15 14 13 13 13 13 13 14 15 15 15 15 15 15 15 14 13 12 12 13 13 14 16 16 16 16 15 15 15 15 15 16 17 17 17 17 18 18 19 19 19 20 21 22 22 23 23 23 23 22 22 22 22 21 21 22 22 23 23 24 24 24 24 24 25 25 24 23 20 18 17 16 15 15 16 16 16 15
18 19 20 20 19 18 17 17 16 15 15 14 15 15 16 17 16 15 14 14 14 14 13 13 13 13 14 15 15 16 16 15 15 15 15 15 15 16 16 17 18 19 20 21 21 21 20 20 21 21 22 22 23 24 24 25 24 23 21 20 19 19 19 20 20 20 20 20 20 21 22 22 22 21 19 18 16 16 15 15 15 16 16 15 14
16 17 19 22 23 21 19 18 18 17 16 16 16 17 17 16 15 13 12 14 15 15 15 14 14 14 14 14 14 14 14 14 14 14 15 15 16 16 17 18 19 20 21 21 21 21 21 21 22 22 23 23 25 25 25 24 22 20 18 16 15 15 15 16 17 17 17 18 18 19 20 21 20 19 18 17 16 16 15 15 16 16 15 14 13
15 15 16 19 22 24 23 21 21 20 18 16 17 18 18 17 17 15 14 13 14 14 14 14 14 14 14 14 13 13 13 14 15 15 16 16 16 17 17 18 19 19 19 19 19 19 20 21 21 22 22 23 24 24 21 19 17 16 15 13 12 12 12 13 14 15 16 17 18 19 20 20 20 19 17 16 15 15 15 15 16 15 13 11 11
16 16 16 17 18 21 23 24 24 23 21 19 18 18 18 17 17 16 15 13 12 12 13 12 13 14 15 15 15 15 16 17 17 16 16 16 16 17 17 17 16 16 16 16 17 18 19 20 20 21 22 22 22 20 17 15 14 13 12 11 10 10 11 12 13 14 16 17 18 19 20 20 19 17 16 15 15 15 15 15 14 13 10 10 10
16 16 16 16 15 16 19 22 23 23 23 22 21 20 19 17 13 10 10 11 12 13 13 13 15 16 17 17 16 15 14 13 12 12 13 14 14 15 15 14 14 14 15 16 18 19 19 19 20 21 19 17 16 14 13 12 11 11 10 10 10 11 12 14 15 16 17 18 19 19 19 18 16 15 15 14 14 14 14 13 12 10 9 10 11
16 15 15 15 14 14 17 20 21 22 23 23 21 20 20 19 15 12 12 14 15 15 15 15 16 17 16 15 13 11 9 8 10 11 12 12 12 12 12 13 14 16 17 18 19 19 19 19 19 18 14 10 8 8 8 9 10 10 10 11 12 13 15 16 17 18 18 18 18 18 18 17 16 15 14 13 14 14 12 10 8 8 9 11 12
17 17 16 15 15 14 15 16 17 18 20 21 20 20 22 23 20 17 16 17 16 16 16 16 16 15 13 12 11 9 9 10 12 12 12 12 11 12 13 15 16 18 19 19 20 19 19 18 18 17 13 10 9 9 10 10 11 11 12 13 14 15 16 16 16 17 18 18 19 19 19 18 16 15 14 13 14 13 10 8 7 9 10 11 11
Wind_Direction
203 203 203 202 202 201 203 203 203 204 206 207 206 205 208 206 205 208 207 206 209 212 215 218 222 224 222 223 226 225 225 228 230 230 228 226 226 228 233 238 241 241 246 248 246 250 257 257 256 260 269 273 272 267 259 250 249 259 281 298 297 297 308 313 313 316 319 324 337 355 356 351 353 352 345 343 343 340 336 333 331 330 331 330 330
203 204 204 203 203 204 205 204 206 207 207 209 208 206 208 207 207 209 208 206 210 216 218 216 217 222 223 225 227 225 224 227 227 227 227 226 227 230 233 239 243 241 241 244 246 253 261 265 268 272 272 266 262 264 256 247 253 263 280 302 304 301 305 312 316 318 320 325 335 343 343 341 342 344 343 341 343 343 337 334 332 328 326 321 317
204 205 206 206 206 206 206 206 208 210 211 209 209 209 209 209 210 210 208 210 213 216 219 216 214 219 222 224 226 225 224 224 223 224 225 224 228 232 235 236 235 233 232 239 253 258 256 262 271 269 250 240 242 257 268 270 271 267 263 281 297 302 301 303 310 314 316 320 328 333 336 337 337 340 341 341 346 347 342 338 335 330 323 315 314
208 208 208 210 210 209 209 209 209 211 214 211 208 209 209 210 210 207 207 211 215 217 218 217 218 220 219 219 223 222 219 219 222 225 227 228 228 231 236 238 238 238 238 244 259 257 246 248 251 241 237 246 262 290 298 291 269 250 256 278 289 291 292 294 301 308 309 310 317 326 330 330 330 336 341 336 333 334 332 331 331 327 320 315 317
211 211 211 211 213 212 210 211 211 213 215 212 208 209 209 209 207 204 205 212 218 219 217 219 222 218 214 216 221 218 213 218 228 233 235 233 226 225 232 240 246 250 249 252 264 266 258 252 246 243 259 304 335 339 332 307 268 254 262 276 281 288 294 295 297 300 300 301 310 319 324 323 322 331 340 333 325 324 323 324 325 323 319 317 320
212 212 212 211 213 213 210 212 215 215 215 212 209 207 206 206 207 207 209 214 220 220 216 220 224 216 210 217 231 229 222 223 234 239 240 238 232 227 226 235 246 255 260 263 270 274 267 255 252 295 301 312 317 314 309 300 291 291 296 297 296 301 307 306 302 299 297 298 304 311 315 317 319 326 332 330 326 324 321 320 320 321 321 322 325
212 213 211 211 214 213 211 215 218 216 215 213 210 207 207 210 211 211 212 214 217 218 216 218 223 221 216 221 237 243 237 234 238 241 241 242 239 231 226 234 247 253 256 256 253 250 252 256 271 290 296 301 307 307 300 289 284 289 298 302 305 310 314 313 309 304 301 300 301 303 307 313 318 322 325 325 322 319 320 320 322 327 328 328 329
211 212 211 213 216 214 212 218 221 217 215 213 207 204 209 217 216 211 213 216 218 220 221 221 222 222 223 226 233 240 241 239 238 239 241 243 242 237 231 235 247 251 247 244 239 239 252 267 277 286 291 294 300 302 296 286 282 282 284 287 292 302 308 309 308 305 301 298 298 300 304 310 316 320 321 320 318 318 320 322 324 328 327 327 330
210 210 211 215 219 217 216 220 222 219 216 213 208 205 210 218 218 213 214 221 222 222 224 226 225 225 228 231 234 239 242 239 234 233 236 238 240 241 239 239 246 251 247 243 244 248 257 266 273 280 282 283 288 291 288 284 283 282 280 280 284 294 304 307 306 304 300 299 300 302 305 310 316 319 318 318 317 316 318 319 320 322 321 322 326
210 210 212 216 220 222 221 220 220 218 215 215 217 216 216 221 226 225 223 223 224 223 224 227 228 228 231 235 239 242 241 238 235 235 236 236 237 239 242 244 247 250 246 242 244 247 252 258 262 268 272 273 276 280 283 282 281 280 277 273 274 280 291 299 302 300 300 303 305 306 306 310 316 317 317 316 313 312 314 315 316 319 320 321 324
210 211 214 218 221 225 226 223 218 216 216 218 222 223 223 226 231 232 230 227 224 223 222 224 226 226 228 233 237 237 236 235 238 239 240 240 237 231 230 234 240 243 243 243 246 247 248 252 255 258 262 266 269 272 277 280 280 282 281 274 272 274 281 288 293 293 297 303 308 309 308 311 316 317 316 314 312 311 312 313 315 317 319 321 323
212 214 215 219 223 225 228 226 219 215 217 222 224 223 224 228 230 229 229 228 227 226 223 221 222 222 223 225 227 229 232 236 237 239 242 243 240 231 225 225 231 234 236 241 249 253 256 255 254 254 256 259 264 269 275 280 283 285 285 282 280 279 280 283 284 286 292 300 305 306 307 310 314 315 314 312 311 311 310 312 314 315 317 319 319
209 213 214 217 221 222 226 228 224 220 221 224 225 224 224 229 231 231 230 228 225 224 223 220 219 220 222 224 225 227 232 236 237 240 245 245 240 235 231 233 235 232 231 239 249 258 262 258 253 255 258 261 263 266 269 273 278 280 282 282 281 281 283 283 282 285 292 297 299 301 305 308 310 311 311 309 309 310 311 312 313 313 314 315 318
206 210 213 215 218 219 220 220 219 221 224 226 228 228 228 230 233 234 233 230 224 220 219 219 218 221 225 228 229 229 231 234 236 240 244 244 240 238 238 240 240 236 234 239 249 259 263 262 263 264 265 263 262 264 265 267 271 275 279 281 282 283 286 287 285 286 289 291 294 297 301 304 306 307 307 307 308 309 310 311 312 312 313 316 319
210 211 214 219 223 223 221 220 220 218 218 223 229 231 232 233 234 234 232 228 223 219 218 219 219 221 226 229 230 233 235 237 238 239 242 242 240 239 239 242 244 243 241 242 249 256 262 265 270 273 273 269 264 263 265 268 271 274 277 281 284 286 288 289 287 286 287 288 291 295 299 301 302 303 304 305 306 306 307 309 311 312 314 317 320
216 219 223 227 229 227 224 225 227 224 219 221 228 232 234 235 236 236 234 230 225 221 219 221 223 225 228 230 233 238 241 242 242 242 242 241 241 239 239 242 245 246 245 246 249 255 260 264 269 276 279 275 269 266 267 270 274 277 279 282 284 284 285 286 286 286 286 288 291 294 297 298 299 300 301 302 303 304 306 308 310 312 313 315 317
222 225 229 230 230 229 229 230 231 231 227 226 229 233 236 239 239 237 237 235 231 228 226 227 229 230 232 235 238 241 245 246 246 246 246 246 246 247 246 246 247 247 247 247 249 252 257 262 269 275 278 276 272 271 272 274 277 280 281 283 282 281 280 281 283 284 285 287 289 292 293 295 296 298 298 300 302 304 306 308 309 311 312 315 317
227 228 229 229 229 229 231 232 232 232 230 229 233 236 237 241 242 240 239 238 235 234 232 232 233 235 237 239 241 243 245 246 246 247 249 250 251 251 250 249 248 246 245 245 247 251 256 263 270 275 276 275 275 275 275 277 279 280 281 281 280 279 279 279 281 283 284 285 287 289 289 291 292 292 294 297 301 302 304 306 309 311 314 317 318
232 234 233 234 235 234 233 234 234 235 234 233 235 237 238 239 241 240 240 239 237 236 236 236 236 238 239 241 243 244 244 244 244 245 247 249 250 250 251 251 249 247 246 247 249 252 257 263 268 271 272 273 274 276 277 279 280 281 281 281 280 279 279 279 279 280 281 282 283 283 281 279 278 282 288 294 298 300 303 307 310 312 313 315 317
239 239 236 234 235 234 234 234 236 239 239 239 239 238 237 237 237 237 236 236 235 236 238 238 239 239 240 241 242 243 241 241 242 244 246 248 248 246 247 249 251 252 252 250 250 252 256 259 262 265 266 268 271 275 279 282 283 283 282 280 280 277 274 274 276 278 280 281 282 281 278 274 275 278 283 288 292 298 305 310 311 309 308 309 311
236 237 233 229 227 229 231 235 238 241 242 242 241 237 233 233 235 237 236 235 234 235 237 238 238 239 239 239 241 241 240 240 243 245 247 250 252 251 251 252 253 253 250 245 242 243 247 251 254 256 258 262 267 273 281 285 284 282 279 275 270 265 263 265 267 270 274 275 276 278 281 282 282 281 282 285 288 292 299 304 304 301 300 303 305
228 225 221 224 227 230 235 239 240 241 243 242 240 237 234 235 239 240 239 237 236 236 237 236 237 237 233 231 236 240 241 243 244 245 248 251 255 258 256 252 250 249 248 244 239 237 238 240 241 242 246 254 261 269 280 282 276 273 270 262 255 253 253 254 255 258 261 263 263 263 273 286 288 285 283 283 285 289 292 293 291 287 287 292 299
220 195 183 200 209 216 229 233 228 228 234 233 234 237 235 234 235 234 229 224 221 218 212 207 215 223 210 201 208 218 225 229 229 231 237 242 244 248 247 242 239 241 246 245 234 227 227 224 217 212 226 245 252 260 267 264 259 256 250 243 241 244 245 244 246 247 251 256 259 263 277 289 293 291 287 286 286 287 288 288 287 283 280 280 285
169 141 126 120 124 139 147 138 136 154 175 184 190 195 193 191 193 186 167 157 159 154 138 131 142 158 155 148 146 152 166 180 172 170 186 200 209 222 230 231 227 231 243 244 225 216 224 230 208 195 243 256 256 256 251 243 235 229 228 230 232 234 235 237 241 248 257 264 271 278 287 294 296 296 297 296 294 291 288 288 288 287 285 285 284
146 136 124 120 119 120 120 119 122 131 142 150 152 153 156 159 159 156 150 144 139 138 136 127 126 140 143 132 125 120 113 105 101 98 99 106 124 167 199 217 219 215 224 237 241 252 279 309 331 326 299 278 260 240 218 203 203 212 219 225 228 232 239 247 256 266 275 282 287 292 296 301 304 308 312 311 306 300 292 288 286 285 286 285 281
149 147 137 132 131 129 127 127 129 133 142 152 156 155 154 154 153 151 149 141 131 137 147 145 152 166 158 138 127 118 106 99 96 96 106 112 105 111 171 212 226 228 229 238 251 267 278 285 294 291 277 264 249 227 207 198 202 210 217 223 227 234 245 256 265 274 283 290 294 298 304 308 311 315 317 316 311 304 297 292 289 288 287 284 272
161 154 148 146 146 144 142 141 141 144 149 153 158 160 151 143 150 155 150 142 138 148 150 149 170 193 186 164 149 138 122 119 120 110 206 256 294 300 233 212 229 237 243 250 256 262 269 274 274 259 247 245 237 224 215 213 213 212 217 223 226 231 239 249 258 269 279 287 291 298 304 306 307 310 313 313 310 305 301 300 299 296 295 291 283
147 147 150 153 148 143 145 145 142 144 151 150 148 148 141 138 158 173 175 184 201 208 204 188 189 202 201 189 175 165 171 208 238 269 287 296 301 304 307 306 293 280 277 276 274 270 266 259 236 216 217 226 231 229 224 219 216 214 216 219 219 224 234 241 250 262 273 283 290 296 299 301 304 309 310 308 304 302 303 304 303 300 298 296 294
160 165 174 173 159 152 155 154 144 141 148 153 150 146 145 158 188 200 210 222 219 212 220 222 203 191 196 200 205 212 221 235 253 273 287 297 302 304 307 309 310 312 311 309 307 289 240 213 198 194 198 206 216 222 216 208 205 205 209 215 221 231 241 249 259 270 278 287 294 299 302 305 308 310 307 302 298 299 303 305 304 302 300 299 300
170 181 191 187 178 174 169 159 148 143 146 156 167 176 183 186 191 202 214 216 207 200 209 226 228 219 219 227 237 242 245 255 269 278 286 290 292 295 299 302 307 313 315 316 320 260 189 191 192 194 201 210 216 216 215 215 214 216 223 234 247 259 267 275 282 288 292 295 299 302 305 306 307 307 302 295 293 295 298 301 301 301 302 304 308
168 177 187 189 189 187 180 169 159 154 156 166 178 190 200 198 191 196 209 216 218 225 238 250 259 267 272 273 272 270 269 273 278 282 286 289 291 294 297 299 303 308 310 311 310 204 186 191 196 197 205 221 227 226 230 240 249 255 259 266 275 281 286 291 295 298 302 306 308 308 307 303 300 295 291 289 292 294 297 299 301 304 308 312 315
170 177 187 191 193 194 193 192 187 183 186 192 195 198 206 210 211 219 229 237 245 252 257 262 266 268 271 273 273 275 278 281 285 289 292 295 297 297 297 299 303 307 304 284 210 182 184 190 193 197 213 239 246 247 252 260 269 278 284 287 290 293 296 300 302 304 307 310 312 311 307 301 294 290 290 295 301 305 308 311 315 318 319 318 317
161 171 185 193 196 198 200 203 203 203 205 208 208 207 210 216 225 236 243 248 259 266 267 270 271 271 273 274 275 279 284 288 294 298 301 303 303 303 306 312 316 178 167 170 171 173 180 188 193 202 235 261 263 265 270 273 278 284 288 292 296 299 302 303 304 306 307 308 309 308 304 299 297 298 300 305 310 313 316 318 320 321 319 317 318
167 166 183 198 203 206 209 212 211 210 209 210 210 211 211 217 231 243 246 253 268 278 281 297 312 318 318 313 310 311 311 315 321 324 322 323 325 327 343 97 142 158 165 165 166 170 178 187 194 205 232 255 264 270 273 276 280 282 285 290 293 296 298 300 302 306 309 310 310 308 304 300 299 299 301 303 305 308 310 312 314 316 317 318 319
222 203 203 209 209 211 216 220 220 218 217 219 223 226 230 238 250 254 253 258 270 276 281 295 311 324 333 343 348 348 351 1 9 9 4 3 4 18 122 153 163 169 169 169 172 180 191 201 207 222 244 258 267 274 277 279 283 284 286 289 291 293 295 298 301 306 310 310 308 305 303 302 301 300 301 301 303 305 307 310 313 315 316 316 316
231 228 229 229 223 219 219 220 221 222 223 225 229 235 243 250 254 252 252 257 262 265 272 286 299 310 323 335 341 344 353 7 16 17 16 15 14 27 158 180 185 180 174 179 186 198 215 227 235 248 262 268 274 279 281 283 286 288 290 292 294 296 297 298 298 301 303 304 305 304 302 301 300 300 300 302 304 306 308 310 311 312 312 312 312
233 232 234 235 234 232 229 226 223 224 225 227 231 236 242 247 249 248 251 255 256 257 263 270 278 294 311 321 327 331 336 342 348 356 4 9 8 5 248 225 229 221 205 205 212 227 248 259 260 264 270 274 278 281 283 285 287 289 291 294 295 297 298 297 296 296 297 298 301 301 301 300 300 299 300 302 304 306 307 308 309 309 310 310 311
231 233 237 240 241 240 240 240 238 234 232 231 231 233 234 236 240 244 248 250 252 254 255 257 261 274 291 301 306 311 313 316 323 332 338 336 327 312 296 285 284 279 266 254 250 256 266 274 274 274 275 276 277 279 281 282 285 287 289 291 293 294 295 294 293 293 294 296 298 299 298 298 297 297 299 300 302 303 305 306 308 309 309 310 310
232 234 239 246 247 246 245 247 248 246 240 234 230 229 230 231 234 238 241 244 246 247 247 248 252 260 271 281 287 289 290 295 302 309 313 314 306 296 292 292 291 287 281 276 273 273 274 276 277 278 279 278 279 280 281 282 284 285 286 288 289 289 288 287 287 288 290 293 294 295 294 294 294 296 297 299 300 302 303 305 307 309 309 310 310
249 249 252 255 257 257 258 259 257 252 246 239 234 231 230 231 234 236 238 240 241 241 237 237 242 249 255 262 265 265 267 276 285 293 297 299 297 293 292 292 291 285 280 276 274 274 274 274 274 275 277 278 279 280 281 282 283 284 285 286 286 285 285 285 285 287 289 290 291 291 292 292 292 293 295 296 298 301 303 305 306 306 306 307 307
258 256 256 258 261 264 269 274 270 260 253 251 246 239 234 233 234 233 232 233 234 233 233 234 238 241 244 246 247 249 255 263 272 278 283 287 290 291 291 291 290 286 281 276 274 273 273 274 274 275 276 278 280 280 281 281 282 282 283 284 285 286 286 287 287 288 288 289 289 289 289 290 291 292 293 295 297 300 301 302 301 300 300 302 304
258 254 253 255 256 259 265 271 270 267 267 266 261 253 248 246 244 239 234 233 233 234 236 238 237 236 235 236 239 244 251 259 267 274 281 286 290 292 293 291 286 281 277 274 274 275 275 276 277 278 279 281 282 283 283 283 283 283 283 283 283 284 286 287 289 288 287 287 287 287 289 291 292 293 295 297 299 300 299 298 297 297 299 303 304
246 244 246 248 251 257 262 261 259 262 267 269 267 263 261 258 253 246 240 238 238 238 238 238 238 236 235 239 244 251 260 267 274 280 285 289 291 292 292 288 282 278 276 275 276 277 278 278 280 281 283 285 286 286 287 288 288 288 286 285 284 285 286 287 288 287 286 285 286 288 290 292 293 296 299 301 303 303 302 301 301 303 305 307 307
246 244 244 245 250 257 261 260 257 259 263 265 263 260 255 253 252 250 246 243 240 237 234 234 236 237 240 245 252 259 265 270 276 281 286 290 292 291 288 284 281 280 280 281 280 281 282 284 285 286 286 287 288 288 289 290 291 290 288 285 283 283 283 284 285 287 288 290 291 292 293 295 299 303 306 307 308 308 308 309 309 309 310 310 311
259 255 250 247 248 252 256 257 257 256 258 258 255 251 247 246 246 246 242 236 232 230 230 230 233 237 242 247 252 258 263 268 274 280 285 288 288 285 282 280 281 281 282 282 282 283 285 287 289 291 292 293 293 293 293 293 293 292 290 287 284 282 282 283 286 290 294 297 298 299 302 305 308 311 313 313 314 314 314 314 314 313 313 314 318
270 265 256 251 249 249 249 247 245 245 249 252 251 249 248 246 245 241 234 229 228 229 231 232 234 239 247 253 256 259 263 267 272 278 282 283 283 281 280 280 281 280 279 280 281 283 287 290 293 296 298 298 298 298 297 296 296 296 296 294 292 291 292 293 294 297 299 302 305 308 310 312 314 315 315 315 315 313 314 315 314 313 315 318 322
274 271 262 254 251 250 246 240 236 237 241 244 245 244 241 239 240 239 233 228 227 228 230 235 242 248 253 257 258 258 262 267 272 276 278 278 278 278 278 278 277 275 276 279 283 288 292 295 297 299 300 301 301 301 299 297 297 299 302 304 303 301 300 299 301 303 304 308 312 313 313 315 316 315 314 313 311 311 313 313 312 313 318 321 321
273 271 266 260 257 256 254 249 244 242 242 238 231 227 226 227 230 233 232 228 228 231 233 239 247 251 251 252 255 260 268 273 276 276 275 274 276 278 278 276 275 276 280 286 292 297 300 301 301 303 303 301 299 297 295 297 303 310 316 320 320 315 311 309 308 308 308 310 311 311 312 315 316 315 313 311 310 310 311 311 312 316 321 321 319
278 272 269 268 265 264 263 259 255 254 253 243 226 216 214 213 210 215 227 231 233 240 245 247 248 249 250 253 260 269 277 279 276 273 271 272 274 275 274 274 277 283 289 294 298 301 303 304 306 308 307 303 296 291 290 298 309 317 321 322 319 315 311 308 305 305 307 309 311 312 313 316 317 314 311 309 309 309 311 313 316 322 324 320 319
275 268 266 266 264 261 261 260 256 254 251 241 229 225 232 237 238 244 249 245 243 248 253 252 250 251 253 258 264 270 272 268 266 266 267 268 267 266 267 272 278 284 290 295 299 303 306 309 313 315 313 309 306 303 298 299 304 306 307 307 306 304 304 305 306 309 313 316 317 317 317 319 320 317 313 311 310 311 314 318 325 327 322 317 314
265 260 260 263 262 259 259 260 259 256 253 250 248 251 257 259 260 258 253 249 250 253 252 248 248 250 254 257 257 252 249 253 257 258 258 258 259 261 268 275 281 287 292 297 301 304 308 311 317 320 316 307 306 306 302 299 299 298 297 299 300 303 308 314 318 320 323 323 322 320 320 321 322 319 315 313 312 314 320 330 331 321 314 312 313